GPS BIIF-12 (41328 NORAD) Tracking and Keplerian Element Data

This shows tracking and keplerian element data for the satellite.

Feedback or suggestion? Click here.




ElementValue
Catalog41328
NameGPS BIIF-12
Epoch Orbit6588
Epoch Day34.78860402
Epoch Year2025
RAAN109.2467
Inclination55.23
Eccentricity0.0086052
Argument of Perigee240.8371
Mean Anonmoly118.3517
Mean Motion2.00550588
Decay Rate-1.2E-07
L11 41328U 16007A 25034.78860402 -.00000012 00000+0 00000+0 0 9993
L22 41328 55.2300 109.2467 0086052 240.8371 118.3517 2.00550588 65886



Live tracking and technical data element details for GPS BIIF-12 (NORAD 41328). GPS BIIF-12 can be tracked NOW for your location showing map with azimuth and elevation plus other details from your city location.







IsCatalogInMostPopularTable: catalog: 41328, numindb: 665
Update: records affected: 1



GetName: 41328 GPS BIIF-12

Hit Count: updated at: Fri, 18 Jul 2025 16:25:29 GMT